Location: Taaricht
(32.5378°N, 5.4251°W)
Time: 18:24:46
(UTC+00:00)

Cosmos 2366 rocket - Pass Details

Date: 09 April 2020
Orbit: 956 x 997 km, 82.9° (Epoch: 28 May)

Event Time Altitude Azimuth Distance (km) Brightness Sun altitude
Rises 21:25:11 0° 352° (N) 3,639 7.6 -31.4°
Reaches altitude 10° 21:27:41 10° 351° (N) 2,692 6.8 -31.8°
Enters shadow 21:32:54 65° 333° (NNW) 1,052 4.2 -32.7°
